Weather in Bushtyna

Ukraine / Zakarpattia District     48°03′22″N   23°29′39″E
temp.,
°C
wind,
m/s
gust,
m/s
humid.,
%
clouds,
%
prec.,
mm/h
press.,
hPa
HPBL,
m
5 march, fri
fri523:00+6s237695 0.0 101558
02:00+6s227696 0.1 101454
05:00+5ssw2379100 0.3 1013128
08:00+5ssw258599 0.6 1012349
11:00+6ssw2480100 0.3 1013473
14:00+6sw3888100 0.9 1013756
17:00+4w3795100 2.8 1014617
20:00+2nnw3592100 3.4 1018333
6 march, sat
sat623:00+1n2579100 0.3 1021620
02:00−1nne357599 0.3 1024247
05:00−2nne3669100 0.0 1026307
08:00−2n236358 0.0 1029216
11:00+1nnw34410 0.0 10301296
14:00+3nw454121 0.0 10291978
17:00+2wnw455198 0.1 10301439
20:00−1w226956 0.1 103132
7 march, sun
sun723:00−2ssw11690 0.0 103222
02:00−2ssw11660 0.0 103123
05:00−2s11668 0.0 103025
08:00−1s136017 0.0 1029214
11:00+2sw46470 0.0 10271096
14:00+4wsw46440 0.0 10241387
17:00+3sw36546 0.0 10211335
20:00−1s22704 0.0 102223
8 march, mon
mon823:00−1s226921 0.0 102128
02:00−1s126828 0.0 102024
05:00−2s12670 0.0 101822
08:000s116136 0.0 101873
11:00+2wsw2450100 0.0 1016936
14:00+4wsw354997 0.0 10151454
17:00+3w235998 0.0 1015947
20:000w127383 0.0 101822
9 march, tue
tue923:00−1nw128839 0.0 102029
02:00−4n227520 0.0 102160
05:00−4ne12680 0.0 102254
08:00−3ne23560 0.0 1023243
11:00+1ene23370 0.0 1023891
14:00+3ne22298 0.0 10231479
17:00+3nne22366 0.0 10221353
20:00−2e12638 0.0 102422